TimeCEST,TemperatureF,Dew PointF,Humidity,Sea Level PressureIn,VisibilityMPH,Wind Direction,Wind SpeedMPH,Gust SpeedMPH,PrecipitationIn,Events,Conditions,WindDirDegrees,DateUTC
12:20 AM,64.4,57.2,77,30.04,-9999.0,Variable,1.2,-,N/A,,Clear,0,2012-09-01 22:20:00
12:50 AM,64.4,57.2,77,30.04,-9999.0,North,2.3,-,N/A,,Clear,350,2012-09-01 22:50:00
1:20 AM,64.4,59.0,83,30.04,-9999.0,NNE,4.6,-,N/A,,Clear,20,2012-09-01 23:20:00
1:50 AM,62.6,59.0,88,30.04,-9999.0,Variable,1.2,-,N/A,,Clear,0,2012-09-01 23:50:00
2:20 AM,62.6,57.2,82,30.04,-9999.0,NNE,2.3,-,N/A,,Clear,30,2012-09-02 00:20:00
2:50 AM,62.6,57.2,82,30.04,-9999.0,NE,3.5,-,N/A,,Clear,40,2012-09-02 00:50:00
3:20 AM,64.4,57.2,77,30.01,-9999.0,NNE,3.5,-,N/A,,Clear,20,2012-09-02 01:20:00
3:50 AM,64.4,55.4,73,30.01,-9999.0,NNE,3.5,-,N/A,,Clear,30,2012-09-02 01:50:00
4:20 AM,62.6,55.4,77,30.01,-9999.0,NNW,3.5,-,N/A,,Clear,330,2012-09-02 02:20:00
4:50 AM,64.4,55.4,73,30.04,-9999.0,North,3.5,-,N/A,,Clear,360,2012-09-02 02:50:00
5:20 AM,64.4,55.4,73,30.04,-9999.0,North,5.8,-,N/A,,Clear,360,2012-09-02 03:20:00
5:50 AM,64.4,55.4,73,30.04,-9999.0,ENE,3.5,-,N/A,,Clear,70,2012-09-02 03:50:00
6:20 AM,62.6,55.4,77,30.04,6.2,Variable,2.3,-,N/A,,Scattered Clouds,0,2012-09-02 04:20:00
6:50 AM,62.6,55.4,77,30.04,6.2,North,3.5,-,N/A,,Scattered Clouds,360,2012-09-02 04:50:00
7:20 AM,66.2,57.2,73,30.04,-9999.0,NNW,2.3,-,N/A,,Clear,330,2012-09-02 05:20:00
7:50 AM,68.0,55.4,64,30.04,-9999.0,NNW,3.5,-,N/A,,Clear,330,2012-09-02 05:50:00
8:20 AM,69.8,55.4,60,30.04,-9999.0,North,4.6,-,N/A,,Clear,10,2012-09-02 06:20:00
8:50 AM,71.6,55.4,57,30.06,-9999.0,North,4.6,-,N/A,,Clear,350,2012-09-02 06:50:00
9:20 AM,73.4,53.6,50,30.06,-9999.0,North,4.6,-,N/A,,Clear,350,2012-09-02 07:20:00
9:50 AM,73.4,55.4,53,30.06,-9999.0,North,4.6,-,N/A,,Clear,350,2012-09-02 07:50:00
10:20 AM,78.8,55.4,44,30.06,-9999.0,North,3.5,-,N/A,,Clear,10,2012-09-02 08:20:00
10:50 AM,78.8,53.6,42,30.06,-9999.0,NE,4.6,-,N/A,,Clear,40,2012-09-02 08:50:00
11:20 AM,80.6,51.8,37,30.06,-9999.0,NNE,4.6,-,N/A,,Clear,20,2012-09-02 09:20:00
11:50 AM,80.6,51.8,37,30.06,-9999.0,NNE,3.5,-,N/A,,Clear,30,2012-09-02 09:50:00
12:20 PM,82.4,53.6,37,30.06,-9999.0,Variable,3.5,-,N/A,,Clear,0,2012-09-02 10:20:00
12:50 PM,82.4,55.4,39,30.04,-9999.0,South,5.8,-,N/A,,Clear,170,2012-09-02 10:50:00
1:20 PM,84.2,57.2,40,30.04,-9999.0,SSW,6.9,-,N/A,,Clear,210,2012-09-02 11:20:00
1:50 PM,84.2,55.4,37,30.04,-9999.0,Variable,2.3,-,N/A,,Clear,0,2012-09-02 11:50:00
2:20 PM,86.0,55.4,35,30.01,-9999.0,Variable,4.6,-,N/A,,Clear,0,2012-09-02 12:20:00
2:50 PM,86.0,55.4,35,30.01,-9999.0,Variable,2.3,-,N/A,,Clear,0,2012-09-02 12:50:00
3:20 PM,86.0,57.2,37,29.98,-9999.0,Variable,3.5,-,N/A,,Clear,0,2012-09-02 13:20:00
3:50 PM,86.0,55.4,35,29.98,-9999.0,South,5.8,-,N/A,,Clear,190,2012-09-02 13:50:00
4:20 PM,87.8,57.2,35,29.98,-9999.0,South,8.1,-,N/A,,Clear,190,2012-09-02 14:20:00
4:50 PM,86.0,57.2,37,29.98,-9999.0,SSW,6.9,-,N/A,,Clear,200,2012-09-02 14:50:00
5:20 PM,84.2,59.0,42,29.98,6.2,South,8.1,-,N/A,,Partly Cloudy,190,2012-09-02 15:20:00
5:50 PM,84.2,59.0,42,29.98,6.2,South,5.8,-,N/A,,Scattered Clouds,190,2012-09-02 15:50:00
6:20 PM,82.4,59.0,45,29.95,6.2,SSW,5.8,-,N/A,,Scattered Clouds,200,2012-09-02 16:20:00
6:50 PM,82.4,59.0,45,29.98,6.2,SSW,3.5,-,N/A,,Mostly Cloudy,200,2012-09-02 16:50:00
7:20 PM,80.6,59.0,48,29.95,6.2,SSW,3.5,-,N/A,,Mostly Cloudy,200,2012-09-02 17:20:00
7:50 PM,80.6,60.8,51,29.95,6.2,East,2.3,-,N/A,,Mostly Cloudy,80,2012-09-02 17:50:00
8:20 PM,80.6,60.8,51,29.95,6.2,NNE,4.6,-,N/A,,Mostly Cloudy,20,2012-09-02 18:20:00
8:50 PM,80.6,60.8,51,29.98,6.2,Variable,2.3,-,N/A,,Scattered Clouds,0,2012-09-02 18:50:00
9:50 PM,78.8,62.6,57,30.01,6.2,SW,5.8,-,N/A,,Scattered Clouds,220,2012-09-02 19:50:00
10:20 PM,78.8,62.6,57,29.98,6.2,SW,4.6,-,N/A,,Partly Cloudy,220,2012-09-02 20:20:00
10:50 PM,78.8,62.6,57,29.98,6.2,WSW,4.6,-,N/A,,Partly Cloudy,240,2012-09-02 20:50:00
11:20 PM,78.8,64.4,61,30.01,6.2,Variable,2.3,-,N/A,,Scattered Clouds,0,2012-09-02 21:20:00
11:50 PM,75.2,66.2,73,29.98,6.2,North,4.6,-,N/A,,Scattered Clouds,10,2012-09-02 21:50:00